SITRO-AIS 27

Last updated on Wed Oct 29 2025 00:03:53 GMT+0000 (Coordinated Universal Time)

1 59068U 24039T 25301.64660328 .00005973 00000+0 48561-3 0 9992 2 59068 95.3922 76.3109 0152403 56.2214 305.3419 14.91025939 90200
UTC large
Height (km)
Speed (km/s)
/
Latitude / Longitude
Inclination (degrees)
Orbital Period (minutes)
Azimuth
Elevation
Range (km)
Doppler Factor

Next 0 passes for location: London (51.5072 / 0.1276)

Sorry there are no passes over London.